Location: Am Damm
(52.2412°N, 8.2885°E)
Time: 23:00:56
(UTC+00:00)

Daily predictions for brighter satellites

Satellite Brightness Start Highest point End
(mag) Time Altitude Azimuth Time Altitude Azimuth Time Altitude Azimuth
ASTEX 1 4.0 17:00:01 10° NNE 17:04:36 36° E 17:09:09 10° SSE
Unknown 4.3 17:03:05 10° SW 17:06:59 40° SSE 17:10:52 10° E
Unknown 3.2 17:03:55 10° W 17:07:28 78° N 17:10:59 10° E
Unknown 4.3 17:04:49 10° SW 17:08:43 41° SSE 17:12:37 10° E
Cosmos 1626 2.8 17:06:12 10° NNW 17:09:54 62° W 17:13:33 10° S
Cosmos 1825 Rocket 3.5 17:05:51 10° N 17:10:14 80° ENE 17:14:38 10° SSE
Unknown 4.3 17:06:22 10° SW 17:10:17 41° SSE 17:14:12 10° E
Cosmos 1271 Rocket 2.8 17:06:36 10° N 17:10:32 65° ENE 17:14:31 10° SSE
Unknown 3.1 17:08:15 10° W 17:11:40 76° N 17:15:06 10° E
Unknown 4.2 17:08:05 10° SW 17:12:00 42° SSE 17:15:56 10° E
Cosmos 1953 Rocket 3.6 17:07:43 10° N 17:12:06 59° ENE 17:16:24 10° SSE
Cosmos 1833 Rocket 3.4 17:07:00 10° NNW 17:12:06 34° NE 17:17:10 10° ESE
Cosmos 1354 Rocket 4.1 17:07:40 10° NNW 17:12:57 87° WSW 17:18:11 10° SSE
Unknown 4.1 17:09:24 10° SW 17:13:19 46° SSE 17:17:15 10° ENE
SL-4 R/B 3.6 17:11:30 10° W 17:14:59 30° SSW 17:18:15 10° SSE
CZ-2D R/B 4.2 17:12:36 10° ESE 17:15:53 27° ENE 17:19:11 10° N
Cosmos 968 Rocket 3.8 17:12:41 10° NNW 17:17:58 73° WSW 17:23:12 10° SSE
Unknown 4.1 17:14:37 10° SW 17:18:35 46° SSE 17:22:21 11° E
Gbstr 26 Del rocket 4.0 17:13:07 10° W 17:18:52 86° S 17:25:55 10° E
Cosmos 1726 3.1 17:16:44 10° SE 17:19:44 25° E 17:22:46 10° NE
Unknown 4.1 17:16:17 10° SW 17:20:16 47° SSE 17:23:59 12° E
Unknown 3.8 17:17:55 10° SW 17:21:54 57° SSE 17:25:34 12° ENE
Unknown 4.1 17:17:56 10° SW 17:21:55 48° SSE 17:25:35 12° E
Unknown 4.0 17:19:32 10° SW 17:23:32 48° SSE 17:27:08 12° E
Falcon 9 debris 3.2 17:20:14 10° W 17:23:42 76° N 17:26:41 13° E
Unknown 4.0 17:21:12 10° SW 17:25:13 49° SSE 17:28:45 13° E
EO 1 Delta rocket 4.2 17:21:18 10° SE 17:25:40 44° ENE 17:30:22 10° N
Cosmos 2227 Rocket 4.5 17:23:06 10° WNW 17:26:19 15° NNW 17:29:35 10° NNE
Cosmos 1242 Rocket 2.7 17:23:18 10° N 17:26:57 52° ENE 17:30:33 10° SSE
H-2A R/B 4.3 17:23:30 10° S 17:27:12 42° W 17:30:58 10° NNW
Unknown 4.0 17:24:32 10° SW 17:28:34 51° SSE 17:31:59 14° E
Cosmos 1606 Rocket 3.5 17:24:16 10° S 17:28:37 67° E 17:32:58 10° NNE
Cosmos 1703 3.6 17:25:30 10° N 17:29:18 43° ENE 17:33:04 10° SSE
Unknown 3.4 17:26:47 10° W 17:29:21 44° SSW 17:31:50 11° SE
Ariane Rocket 3.5 17:25:07 10° SE 17:29:48 38° ENE 17:34:31 10° N
Starlink (trailer) 3.9 17:26:11 10° SW 17:30:14 52° SSE 17:33:35 14° E
Unknown 3.2 17:27:14 10° W 17:30:45 76° N 17:33:32 16° E
Cosmos 2082 Rocket 3.0 17:26:39 10° NNW 17:31:51 34° NE 17:36:26 13° ESE
Unknown 3.9 17:27:49 10° SW 17:31:52 53° SSE 17:35:10 15° E
Cosmos 2297 Rocket 4.5 17:29:17 10° NW 17:32:17 14° NNW 17:35:15 10° NNE
Unknown 3.9 17:29:26 10° SW 17:33:28 54° SSE 17:36:43 15° E
COSMOS 2406 3.2 17:27:42 10° NNW 17:33:32 74° ENE 17:39:17 10° SE
Cosmos 1758 Rocket 4.3 17:29:10 10° NNW 17:33:32 58° W 17:37:55 10° S
Cosmos 1953 2.3 17:31:27 10° S 17:35:32 89° W 17:39:38 10° N
Cosmos 1992 Rocket 3.9 17:32:31 10° SSW 17:37:43 72° ESE 17:42:56 10° NNE
SJ-6B 4.4 17:38:40 15° ENE 17:39:16 15° ENE 17:41:32 10° NNE
Unknown 3.8 17:35:56 10° SW 17:39:59 59° SSE 17:43:00 17° E
Unknown 3.8 17:36:05 10° SW 17:40:09 58° SSE 17:43:09 17° E
Cosmos 304 Rocket 4.2 17:36:01 10° SW 17:40:48 65° WNW 17:45:37 10° NNE
Unknown 3.8 17:36:48 10° SW 17:40:52 59° SSE 17:43:51 18° E
Lacrosse 5 2.1 17:35:51 10° WNW 17:40:52 61° NNE 17:44:44 17° E
Cosmos 1758 4.5 17:38:22 10° SSW 17:42:13 47° WNW 17:46:05 10° N
CSL-04 Debris 4.2 17:36:56 10° SSE 17:42:23 86° ENE 17:47:55 10° NNW
Unknown 3.3 17:38:43 10° W 17:42:27 82° N 17:45:03 19° E
Cosmos 292 Rocket 4.3 17:39:15 10° S 17:43:32 35° ESE 17:47:51 10° NE
Cosmos 724 4.4 17:38:25 10° SW 17:44:34 86° NW 17:50:38 10° NE
Unknown 3.7 17:40:46 10° WSW 17:44:51 61° SSE 17:47:40 19° E
Unknown 3.7 17:41:02 10° WSW 17:45:07 61° SSE 17:47:56 19° E
Cosmos 1777 Rocket 4.0 17:40:16 10° NNW 17:45:29 62° ENE 17:50:39 10° SE
Cosmos 839 Rocket 4.1 17:40:26 10° NW 17:46:37 83° SW 17:53:24 10° SE
Unknown 3.7 17:42:46 10° WSW 17:46:53 64° SSE 17:49:38 20° E
Meteor 1-11 4.2 17:41:43 10° N 17:47:27 66° ENE 17:53:12 10° SSE
Cosmos 1932 4.5 17:41:13 10° SW 17:47:31 85° SE 17:54:00 10° NE
SKYMED 2 3.5 17:44:28 10° NNE 17:48:51 82° ESE 17:53:11 10° SSW
Cosmos 1461 3.2 17:45:24 10° NW 17:49:18 45° NE 17:51:48 20° ESE
Unknown 3.7 17:46:04 10° WSW 17:50:11 66° SSE 17:52:49 21° E
Unknown 3.4 17:46:31 10° W 17:50:21 86° NNW 17:52:45 22° ENE
Meteor 2-10 4.0 17:45:43 10° S 17:50:39 53° E 17:55:33 10° NNE
Unknown 3.7 17:46:33 10° WSW 17:50:39 65° SSE 17:53:16 21° E
Unknown 3.7 17:47:39 10° WSW 17:51:46 65° SSE 17:54:20 22° E
Cosmos 2084 Rocket 4.4 17:48:24 10° NW 17:52:32 35° NNE 17:54:51 21° E
Unknown 3.4 17:49:09 10° WSW 17:53:04 90° N 17:55:25 23° ENE
IRS-1A Rocket 4.4 17:47:53 10° SE 17:53:12 53° ENE 17:58:34 10° N
Unknown 3.7 17:50:50 10° WSW 17:54:57 66° SSE 17:57:23 23° E
COBE Rocket 4.3 17:50:11 10° N 17:55:24 75° WNW 18:00:30 10° SSW
YAOGAN 1 2.8 17:52:25 10° S 17:56:45 74° WSW 18:01:06 10° NNW
Cosmos 1844 Rocket 2.7 17:51:51 10° SSW 17:57:32 87° WNW 18:03:13 10° NNE
HJ-1C 3.8 17:55:34 19° SE 17:57:39 40° ENE 18:00:51 10° N
Unknown 3.6 17:54:15 10° WSW 17:58:22 69° SSE 18:00:41 25° E
YAOGAN 6 3.5 17:55:23 10° S 17:58:58 53° W 18:02:34 10° NNW
H-2A R/B 3.1 17:57:23 20° E 17:59:40 28° ENE 18:04:12 10° N
Unknown 3.6 17:55:56 10° WSW 18:00:03 70° SSE 18:02:18 26° E
Cosmos 1076 Rocket 4.2 17:56:26 10° N 18:00:25 32° ENE 18:02:16 23° ESE
Unknown 3.6 17:57:35 10° WSW 18:01:43 71° SSE 18:03:54 27° E
Meteor 1-16 Rocket 4.1 17:57:41 10° S 18:03:15 84° ESE 18:08:41 10° NNE
Cosmos 1939 Rocket 2.7 17:59:20 10° SSE 18:03:18 71° ENE 18:07:21 10° N
Lacrosse 5 rocket 3.5 18:00:27 10° W 18:03:18 21° SW 18:06:16 10° S
Unknown 3.6 17:59:14 10° WSW 18:03:22 72° SSE 18:05:29 28° E
Unknown 3.6 18:02:32 10° WSW 18:06:40 74° SSE 18:08:41 29° E
Unknown 3.6 18:04:15 10° WSW 18:08:23 76° SSE 18:10:20 30° E
Cosmos 1908 3.2 18:04:44 10° S 18:08:34 58° E 18:12:26 10° NNE
Unknown 3.6 18:05:54 10° WSW 18:10:02 76° SSE 18:11:55 31° E
Cosmos 1726 Rocket 4.1 18:06:11 10° SSW 18:10:32 60° WNW 18:14:53 10° N
Unknown 3.5 18:07:29 10° WSW 18:11:38 76° SSE 18:13:26 33° E
Unknown 3.5 18:07:59 10° WSW 18:12:08 78° SSE 18:13:55 33° E
ATLAS CENTAUR R/B 3.7 18:10:13 10° NW 18:13:28 18° N 18:16:01 12° NE
Unknown 3.5 18:10:40 10° WSW 18:14:48 77° SSE 18:16:28 35° E
Cosmos 1328 4.5 18:10:58 10° NNW 18:14:54 56° W 18:18:47 10° S
Shenzhou-11 Module 4.3 18:14:14 10° SSW 18:15:24 12° S 18:15:24 12° S
Cosmos 2278 Rocket 2.6 18:11:04 10° S 18:16:19 40° ESE 18:21:37 10° NE
Unknown 3.5 18:14:02 10° WSW 18:18:10 79° SSE 18:19:43 37° E
Unknown 3.5 18:15:39 10° WSW 18:19:48 79° SSE 18:21:16 39° E
Cosmos 2228 4.1 18:15:45 10° SSW 18:19:58 47° WNW 18:24:12 10° N
Cosmos 1844 3.9 18:14:39 10° SW 18:20:23 77° WNW 18:26:13 10° NNE
Unknown 3.5 18:17:32 10° WSW 18:21:42 83° SSE 18:23:07 40° E
CZ-2C R/B 4.2 18:20:56 27° E 18:22:14 30° ENE 18:27:11 10° N
Unknown 3.5 18:18:57 10° WSW 18:23:06 81° SSE 18:24:27 42° E
Cosmos 2058 Rocket 3.4 18:18:48 10° SSW 18:23:07 67° WNW 18:27:29 10° N
Cosmos 1339 Rocket 4.3 18:17:23 10° S 18:23:27 76° E 18:29:36 10° NNE
CZ-4 R/B 3.4 18:20:44 10° SSW 18:24:28 31° W 18:28:16 10° NNW
Unknown 3.5 18:20:38 10° WSW 18:24:47 82° SSE 18:26:04 43° E
ATLAS 5 CENTAUR R/B 2.4 18:21:48 10° WSW 18:26:09 53° NW 18:30:17 14° NE
Cosmos 1898 Rocket 4.2 18:22:16 10° NNW 18:27:07 36° NE 18:28:10 33° ENE
USA 186 4.1 18:29:56 11° N 18:29:56 11° N 18:30:03 10° N
Unknown 3.5 18:23:57 10° WSW 18:28:07 84° SSE 18:29:16 47° E
Unknown 3.5 18:25:39 10° WSW 18:29:48 85° SSE 18:30:53 49° E
Cosmos 921 Rocket 3.6 18:26:35 10° SW 18:31:03 60° WNW 18:35:29 10° NNE
Unknown 3.5 18:27:18 10° WSW 18:31:28 85° SSE 18:32:29 50° E
Cosmos 1459 Rocket 4.1 18:25:33 10° N 18:31:36 52° ENE 18:35:04 25° SE
Cosmos 1605 Rocket 4.2 18:26:12 10° NNW 18:32:25 70° W 18:38:29 10° S
FREGAT/IRIS 3.9 18:34:03 29° N 18:34:03 29° N 18:35:37 10° N
Unknown 3.5 18:28:59 10° WSW 18:33:09 86° SSE 18:34:06 52° E
DMSP B5D1-3 4.5 18:31:12 10° NNE 18:36:22 87° WNW 18:41:30 10° SSW
Unknown 3.5 18:32:17 10° WSW 18:36:27 88° SSE 18:37:16 57° E
Unknown 4.0 18:33:46 10° W 18:36:41 36° SSW 18:36:50 35° SSW
COSMO-SKYMED 1 4.1 18:32:49 10° N 18:36:50 37° WNW 18:40:51 10° SW
Cosmos 1356 4.3 18:33:36 10° SSW 18:36:57 49° WNW 18:40:19 10° N
ADEOS Rocket 3.8 18:30:04 10° NNE 18:37:20 41° E 18:44:11 10° SSE
Cosmos 2151 4.3 18:33:36 10° N 18:36:08 25° NE 18:36:08 25° NE
Unknown 3.5 18:33:52 10° WSW 18:38:01 89° SSE 18:38:47 59° E
Unknown 3.5 18:34:15 10° WSW 18:38:24 89° NNW 18:39:10 59° ENE
Cosmos 2084 3.9 18:34:13 10° WSW 18:38:43 63° NW 18:41:05 26° NE
FALCON 9 DEB 3.1 18:36:28 10° WNW 18:39:57 79° SSW 18:39:59 78° S
Unknown 3.5 18:35:51 10° WSW 18:40:01 88° N 18:40:43 61° ENE
Unknown 3.5 18:38:54 10° WSW 18:43:04 89° N 18:43:37 66° ENE
Cosmos 1727 Rocket 3.8 18:37:17 10° S 18:43:25 75° E 18:49:36 10° NNE
Resurs 01 Rocket 3.0 18:45:24 25° NE 18:45:24 25° NE 18:48:05 10° N
SJ-11-01 4.1 18:42:01 30° SSE 18:44:24 83° ENE 18:49:07 10° NNW
Cosmos 2263 Rocket 4.5 18:40:33 10° WNW 18:44:38 20° NNW 18:48:43 10° NNE
Unknown 3.2 18:41:15 10° WNW 18:44:38 78° WSW 18:44:38 78° WSW
Unknown 3.5 18:42:13 10° WSW 18:46:23 88° NNW 18:46:48 71° ENE
Cosmos 1802 Rocket 4.1 18:40:55 10° N 18:47:17 57° ENE 18:49:49 36° SE
Unknown 3.4 18:43:57 10° W 18:48:07 87° N 18:48:29 74° ENE
SJ 16-02 2.5 18:44:24 10° N 18:47:27 28° NNE 18:47:27 28° NNE
Unknown 3.5 18:45:10 10° WNW 18:48:13 61° WSW 18:48:13 61° WSW
Unknown 3.4 18:45:33 10° W 18:49:43 87° N 18:50:00 77° ENE
Unknown 3.4 18:47:16 10° W 18:51:27 86° N 18:51:40 79° ENE
Unknown 3.4 18:48:30 10° W 18:52:36 84° N 18:52:45 81° NE
Okean 3 Rocket 4.0 18:48:25 10° N 18:52:11 46° NE 18:52:11 46° NE
Cosmos 2173 Rocket 3.9 18:47:22 10° N 18:53:42 73° ENE 18:56:56 30° SSE
Cosmos 1726 4.0 18:51:36 10° SW 18:54:52 30° WNW 18:58:09 10° N
Cosmos 2058 2.8 18:50:40 10° N 18:54:46 75° ENE 18:54:46 75° ENE
Cosmos 1833 Rocket 3.1 18:50:52 10° NW 18:56:23 60° WSW 18:59:52 23° S
Unknown 3.5 18:53:53 10° W 18:58:00 84° NNW 18:58:00 84° NNW
ARGOS 3.1 18:57:06 53° ESE 18:58:12 66° ENE 19:03:36 10° N
BREEZE M DEB (TANK) 4.3 18:56:17 10° WSW 18:58:50 23° SSW 18:59:45 22° S
Unknown 3.6 18:55:35 10° W 18:59:38 82° NW 18:59:38 82° NW
Falcon 9 debris 4.1 18:57:18 10° WNW 18:59:57 46° WSW 18:59:57 46° WSW
Unknown 3.6 18:57:01 10° W 19:00:51 75° NW 19:00:51 75° NW
Unknown 3.6 18:57:14 10° W 19:01:14 80° WNW 19:01:14 80° WNW
Unknown 3.6 18:58:52 10° W 19:02:47 77° WNW 19:02:47 77° WNW
Unknown 3.7 19:00:33 10° W 19:04:24 74° WNW 19:04:24 74° WNW
Resurs 1-3 4.4 19:06:58 39° NNE 19:06:58 39° NNE 19:10:01 10° N
Gbstr 26 Del rocket 4.4 18:59:53 10° WNW 19:06:03 58° SSW 19:08:27 40° SSE
SL-08 RB Rocket 4.3 19:08:43 44° NNE 19:08:43 44° NNE 19:12:07 10° N
Unknown 4.4 19:04:30 10° WNW 19:06:59 41° W 19:06:59 41° W
Unknown 3.8 19:03:55 10° W 19:07:38 69° WNW 19:07:38 69° WNW
Ariane Rocket 4.3 19:04:02 10° SSW 19:08:46 38° W 19:13:33 10° NNW
Starlink (trailer) 3.9 19:05:35 10° W 19:09:14 67° WNW 19:09:14 67° WNW
USA 238 DEB 3.7 19:04:30 10° SSW 19:10:58 53° SE 19:11:09 53° ESE
USA 238 3.7 19:04:37 10° SSW 19:11:06 53° SE 19:11:10 53° ESE
Cosmos 1725 Rocket 4.0 19:04:56 10° N 19:11:07 57° ENE 19:11:31 56° E
Unknown 3.9 19:07:13 10° W 19:10:49 64° WNW 19:10:49 64° WNW
Cosmos 2100 Rocket 4.0 19:06:40 10° NNW 19:12:55 81° W 19:16:25 28° S
Unknown 4.0 19:08:51 10° W 19:12:22 62° WNW 19:12:22 62° WNW
SJ-6B 3.5 19:14:19 50° NW 19:14:19 50° NW 19:17:17 10° NNW
Cosmos 2082 Rocket 2.6 19:10:41 10° NW 19:16:19 61° WSW 19:18:18 39° S
Cosmos 1000 Rocket 4.3 19:14:23 34° S 19:17:13 74° E 19:23:29 10° NNE
Unknown 4.3 19:15:24 10° W 19:18:38 53° W 19:18:38 53° W
Unknown 4.3 19:15:34 10° W 19:18:48 53° W 19:18:48 53° W
Unknown 4.3 19:16:17 10° W 19:19:29 52° W 19:19:29 52° W
SPOT 3 Rocket 3.7 19:19:14 50° S 19:20:32 71° WSW 19:25:46 10° NNW
Lacrosse 5 2.2 19:18:57 10° WNW 19:23:54 55° SW 19:23:56 55° SW
Cosmos 1812 Rocket 4.3 19:20:37 10° SSW 19:24:56 53° WNW 19:29:20 10° N
Cosmos 1937 Rocket 3.8 19:21:54 10° NNW 19:26:12 57° N 19:26:12 57° N
Cosmos 1461 4.3 19:24:40 10° WNW 19:28:13 31° WSW 19:28:13 31° WSW
Cosmos 2084 Rocket 4.3 19:27:55 10° NW 19:31:23 49° WNW 19:31:23 49° WNW
Cosmos 990 Rocket 4.1 19:30:42 10° NNW 19:35:19 70° NW 19:35:19 70° NW
Cosmos 2016 Rocket 4.0 19:30:53 10° NNW 19:37:10 82° W 19:38:11 64° S
H-2A R/B 2.5 19:38:01 55° SW 19:38:45 61° W 19:44:07 10° NNW
SL-08 R/B 4.3 19:35:56 10° N 19:42:06 87° W 19:42:13 86° SW
Cosmos 2061 Rocket 4.2 19:42:10 10° NNW 19:48:25 67° W 19:49:34 55° SW
ATLAS CENTAUR R/B 3.6 19:49:50 10° NNW 19:52:12 22° N 19:52:12 22° N
Cosmos 2278 Rocket 3.1 19:54:55 10° WSW 20:00:23 46° NW 20:04:37 17° NNE
CZ-2C R/B 3.7 20:02:00 62° W 20:02:00 62° W 20:07:32 10° NNW
ATLAS 5 CENTAUR R/B 3.7 20:07:52 10° WNW 20:11:49 26° N 20:11:49 26° N
Resurs 01 Rocket 3.9 20:22:59 23° NW 20:22:59 23° NW 20:24:51 10° NNW
ADEOS Rocket 4.0 20:15:27 10° N 20:23:04 59° WNW 20:30:19 10° SW
SJ 16-02 3.8 20:22:56 10° NW 20:24:27 20° NW 20:24:27 20° NW
Terra 4.5 20:34:30 13° N 20:34:30 13° N 20:35:04 10° N
Cosmos 2227 Rocket 4.5 20:55:10 10° NNW 20:57:18 17° N 20:57:18 17° N
Cosmos 2297 Rocket 4.5 21:00:51 10° NNW 21:02:49 18° N 21:02:49 18° N
